Погода в Путевке

Россия / Брянская область     53°15′46″N   34°17′48″E
темп.,
°C
ветер,
м/с
пор.,
м/с
влажн.,
%
обл.,
%
осадки,
мм/ч
давл.,
гПа
погр.,
м
2 июля, сб
сб200:00+11в39750 0.0 1022160
03:00+9всв11790 0.0 102311
06:00+11с11770 0.0 102431
09:00+18св23544 0.0 1024582
12:00+21ссв23415 0.0 10231337
15:00+23сз23360 0.0 10221732
18:00+23зсз45534 0.0 1021562
21:00+16сз33674 0.0 102122
3 июля, вс
вс300:00+13сз228225 0.0 102112
03:00+13ссз22895 0.0 102111
06:00+14зсз2489100 0.0 1020107
09:00+21сз357295 0.0 1019469
12:00+25сз345292 0.0 10191031
15:00+27зсз44465 0.0 10181638
18:00+26зсз46606 0.0 1017483
21:00+21зсз367799 0.0 101783
4 июля, пн
пн400:00+18сз358529 0.0 101886
03:00+17ссз229282 0.1 101730
06:00+18ссз2389100 0.0 101871
09:00+23ссз227078 0.0 1017386
12:00+27зсз235552 0.0 10171225
15:00+28з3351100 0.0 10161336
18:00+27зсз2363100 0.0 1016298
21:00+21ссв2282100 1.1 101616
5 июля, вт
вт500:00+19ююз349099 1.3 101646
03:00+17зюз1291100 1.3 101714
06:00+18ююв229154 0.0 101753
09:00+23ю347142 0.0 1016386
12:00+27зюз3453100 0.6 10161302
15:00+29з244452 0.6 10151885
18:00+28ю245410 0.0 10141009
21:00+23ююв3770100 0.0 1015146
6 июля, ср
ср600:00+20ю3107993 0.0 1015192
03:00+19юз358496 0.0 101579
06:00+19з118690 0.0 101539
09:00+24ссз227196 0.0 1014442
12:00+28ссз1155100 0.0 1014982
15:00+30юз2547100 0.1 10121875
18:00+18сз71196100 4.7 1015508
21:00+16ссз239848 6.6 1015127